www.pogodaiklimat.ru

Архив погоды в Nuuk (Гренландия)

Время
(UTC), дата
04 22.06
05 22.06
06 22.06
07 22.06
08 22.06
09 22.06
10 22.06
11 22.06
12 22.06
13 22.06
14 22.06
15 22.06
16 22.06
17 22.06
18 22.06
19 22.06
20 22.06
21 22.06
22 22.06
23 22.06
00 23.06
01 23.06
02 23.06
03 23.06
04 23.06
05 23.06
06 23.06
07 23.06
08 23.06
09 23.06
10 23.06
11 23.06
12 23.06
13 23.06
14 23.06
15 23.06
16 23.06
17 23.06
18 23.06
19 23.06
20 23.06
21 23.06
22 23.06
23 23.06
00 24.06
01 24.06
02 24.06
03 24.06
04 24.06
05 24.06
06 24.06
07 24.06
08 24.06
09 24.06
10 24.06
11 24.06
12 24.06
13 24.06
14 24.06
15 24.06
16 24.06
17 24.06
18 24.06
19 24.06
20 24.06
21 24.06
22 24.06
23 24.06
00 25.06
01 25.06
02 25.06
03 25.06
04 25.06
05 25.06
06 25.06
07 25.06
08 25.06
09 25.06
10 25.06
11 25.06
12 25.06
13 25.06
14 25.06
15 25.06
16 25.06
17 25.06
18 25.06
19 25.06
20 25.06
21 25.06
22 25.06
23 25.06
00 26.06
01 26.06
02 26.06
03 26.06
04 26.06
05 26.06
06 26.06
07 26.06
08 26.06
09 26.06
10 26.06
11 26.06
12 26.06
13 26.06
14 26.06
15 26.06
16 26.06
17 26.06
18 26.06
19 26.06
20 26.06
21 26.06
22 26.06
23 26.06
00 27.06
01 27.06
02 27.06
03 27.06
04 27.06
05 27.06
06 27.06
07 27.06
08 27.06
09 27.06
10 27.06
11 27.06
12 27.06
13 27.06
14 27.06
15 27.06
16 27.06
17 27.06
18 27.06
19 27.06
20 27.06
21 27.06
22 27.06
23 27.06
00 28.06
01 28.06
02 28.06
03 28.06
04 28.06
05 28.06
06 28.06
07 28.06
08 28.06
09 28.06
10 28.06
11 28.06
12 28.06
13 28.06
14 28.06
15 28.06
16 28.06
17 28.06
18 28.06
19 28.06
21 28.06
22 28.06
23 28.06
00 29.06
01 29.06
02 29.06
Ветер
(напр.,м/с)
Видим. Явления Облачность Т
(С)
Тd
(С)
f
(%)
Тe
(С)
Тes
(С)
Комфортность P
(гПа)
Po
(гПа)
Тmin
(С)
Tmax
(С)
R
(мм)
R24
(мм)
S
(см)
СЗ 4 50 км 9/9 1500 м +0.9 -0.5 90 -4 -4 по сезону 1017.3 1006.7
С 4 50 км 9/9 210 м +0.9 -0.4 91 -5 -5 тепло 1017.2 1006.6
СЗ 4 50 км 10/10 210 м +0.8 -0.5 91 -5 -5 прохладно 1017.1 1006.5 +0.8 +4.3 0.0
СЗ 4 50 км 10/10 180 м +0.9 -0.2 92 -5 -5 по сезону 1017.0 1006.4
С 3 40 км осадки 10/10 180 м +0.9 -0.3 92 -4 -4 тепло 1016.6 1006.0
С 3 16 км слаб. снег 10/10 120 м +0.8 +0.2 96 -4 -4 прохладно 1016.6 1006.1 0.0
СЗ 2 13 км слаб. снег 10/10 30 м +0.6 +0.4 99 -3 -3 по сезону 1016.1 1005.6 0.1
С 2 13 км слаб. снег 9/9 60 м +0.6 +0.4 99 -3 -2 тепло 1015.9 1005.3 0.1
С 2 17 км слаб. дождь со снегом 9/9 30 м +1.0 +0.8 99 -2 -1 прохладно 1015.7 1005.1 0.5
СЗ 2 15 км слаб. ледяной дождь 9/9 120 м +1.2 +0.8 97 -3 -2 по сезону 1015.7 1005.1 0.4
С 2 35 км в посл. час дождь 9/9 60 м +1.8 +1.3 96 -2 -1 тепло 1015.1 1004.6 0.1
С 3 50 км 9/9 240 м +2.7 +1.5 92 -2 -1 прохладно 1015.0 1004.5 0.5
С 3 50 км 6/6 660 м +3.7 +1.7 87 -0 +4 по сезону 1014.8 1004.4
С 3 50 км 9/9 270 м +3.8 +1.7 86 0 +1 тепло 1014.9 1004.5
СЗ 2 50 км 9/9 270 м +4.3 +2.4 87 +1 +2 по сезону 1014.7 1004.3 +0.5 +4.3
СЗ 2 50 км 9/9 360 м +4.6 +1.9 83 +2 +3 по сезону 1014.5 1004.1
СЗ 1 50 км 6/6 360 м +5.2 +2.2 81 +4 +7 тепло 1014.5 1004.1
З 4 45 км 9/9 240 м +3.5 +2.2 91 -1 -1 прохладно 1014.6 1004.2
З 6 45 км 9/9 90 м +2.6 +1.8 94 -3 -3 по сезону 1014.4 1004.0
З 4 19 км 9/9 30 м +1.9 +1.5 97 -3 -3 тепло 1014.4 1003.9
СЗ 4 22 км ?/? +1.8 +1.6 99 -4 -4 холодно 1014.4 1003.9
СЗ 5 200 м туман 10/10 30 м +1.2 +1.1 99 -5 -5 по сезону 1014.4 1003.9
З 4 200 м туман 10/10 30 м +1.0 +1.0 100 -4 -4 тепло 1014.5 1003.9
СЗ 2 100 м туман ?/? +0.7 +0.7 100 -3 -3 прохладно 1014.7 1004.1
СЗ 2 100 м туман 10/10 30 м +0.9 +0.9 100 -2 -2 по сезону 1014.5 1004.0
СЗ 2 100 м туман 10/10 30 м +0.4 +0.4 100 -4 -4 тепло 1014.4 1003.9
СВ 1 100 м туман ?/? +0.7 +0.7 100 -2 -2 по сезону 1014.2 1003.7 +0.4 +5.6 1.0
С 1 100 м туман 10/10 30 м +1.0 +1.0 100 -1 -1 по сезону 1014.0 1003.5
С 1 100 м туман 10/10 30 м +1.2 +1.2 100 0 0 тепло 1014.3 1003.8
З 2 100 м туман ?/? +0.7 +0.7 100 -2 -2 по сезону 1014.3 1003.8
В 1 200 м туман 10/10 30 м +0.9 +0.9 100 0 0 тепло 1014.2 1003.6
ЮЗ 1 100 м туман 10/10 30 м +0.9 +0.9 100 -1 -1 тепло 1014.4 1003.9
З 3 200 м туман ?/? +0.8 +0.8 100 -4 -4 прохладно 1014.4 1003.9
С 1 400 м туман 10/10 30 м +1.7 +1.7 100 -0 -0 по сезону 1014.2 1003.7
С 3 500 м туман 10/10 30 м +1.6 +1.5 99 -3 -3 тепло 1014.0 1003.5
С 3 500 м туман 6/6 30 м +2.4 +2.3 99 -2 +2 прохладно 1013.8 1003.3
З 2 4900 м в посл. час туман ясно +2.8 +2.5 98 0 +14 по сезону 1013.9 1003.4
З 2 50 км ясно +4.3 +3.0 91 +2 +15 опасность
простуды
1013.6 1003.2
З 2 50 км ясно +4.3 +2.4 87 +1 +11 опасность
простуды
1014.1 1003.7 +0.5 +5.6
ЮЗ 2 50 км ясно +4.7 +2.3 84 +2 +10 опасность
простуды
1014.3 1003.9
З 2 50 км ясно +5.0 +2.5 84 +2 +8 тепло 1014.1 1003.7
ЮЗ 1 50 км ясно +5.9 +2.3 78 +5 +9 по сезону 1013.8 1003.5
З 2 50 км ясно +5.5 +2.7 82 +4 +6 тепло 1013.8 1003.4
З 1 50 км ясно +6.3 +2.9 79 +5 +6 тепло 1013.7 1003.4
ЮЗ 2 50 км ясно +5.1 +2.8 85 +2 +3 по сезону 1013.9 1003.5
Ю 2 50 км ясно +3.7 +2.1 89 +1 +1 по сезону 1014.1 1003.7
Ю 3 50 км ясно +2.1 +1.6 96 -2 -2 тепло 1014.5 1004.0
Ю 2 50 км ясно +1.7 +1.0 95 -2 -2 по сезону 1014.6 1004.1
ЮВ 2 50 км ясно +1.4 +0.8 96 -2 -2 по сезону 1014.8 1004.3
Ю 3 50 км ясно +1.4 +1.0 97 -3 -3 тепло 1014.8 1004.3
Ю 4 50 км ясно +1.6 +0.9 95 -3 -3 прохладно 1015.3 1004.8 +1.3 +7.0
Ю 5 50 км ясно +1.8 +1.1 95 -4 -4 по сезону 1015.7 1005.2
Ю 4 50 км ясно +2.8 +1.8 93 -2 -1 тепло 1015.7 1005.3
Ю 2 50 км ясно +4.3 +1.8 84 +2 +4 по сезону 1016.2 1005.8
СВ 2 50 км ясно +4.3 +2.3 87 +2 +6 тепло 1016.4 1006.0
СЗ 1 50 км 9/0 +4.0 +2.1 87 +3 +6 тепло 1016.8 1006.3
С 3 50 км 9/0 2000 м +4.1 +2.4 89 +1 +5 по сезону 1016.6 1006.2
С 3 50 км н/о +4.7 +2.2 84 +2 +2 тепло 1017.0 1006.6
В 1 50 км 9/0 2000 м +5.9 +2.3 78 +5 +12 тепло 1017.0 1006.6
СВ 2 50 км 9/0 2000 м +6.1 +2.8 79 +4 +11 по сезону 1016.7 1006.3
С 4 50 км 9/9 1500 м +7.5 +1.4 65 +4 +5 тепло 1016.6 1006.3
З 2 50 км 9/9 1500 м +7.6 +1.4 65 +6 +7 тепло 1016.6 1006.3
ЮВ 2 50 км 9/9 1500 м +9.5 +0.1 52 +8 +9 тепло 1016.4 1006.2 +1.5 +9.5
С 3 50 км 10/10 1500 м +9.3 +1.1 57 +8 +8 тепло 1016.2 1006.0
С 5 50 км 10/10 1320 м +9.6 +1.6 57 +7 +7 тепло 1016.0 1005.8
С 3 50 км 10/10 1410 м +9.9 +1.5 56 +8 +8 тепло 1015.9 1005.7
Ю 2 50 км 10/10 1410 м +11.0 +1.5 52 +11 +11 тепло 1015.8 1005.6
ЮЗ 1 50 км 9/9 1350 м +10.3 +1.4 54 +11 +11 тепло 1015.9 1005.7
ЮВ 4 50 км н/о +7.4 +0.9 63 +4 +4 по сезону 1016.1 1005.8
ЮВ 4 50 км 9/9 1380 м +7.5 +0.3 60 +4 +4 тепло 1015.9 1005.6
ЮВ 6 50 км 10/10 1380 м +7.6 -0.5 56 +4 +4 тепло 1015.6 1005.3
Ю 4 50 км 10/10 1350 м +7.4 +0.1 60 +5 +5 тепло 1015.3 1005.0
Ю 5 50 км 10/10 1320 м +7.1 +0.4 62 +3 +3 тепло 1015.2 1004.9
ЮВ 6 50 км 1/1 1350 м +7.3 +0.9 64 +3 +3 тепло 1014.5 1004.2
ЮВ 2 50 км 1/1 1470 м +6.9 +0.5 64 +6 +6 тепло 1014.4 1004.1 +6.8 +11.4
С 2 50 км 9/9 1320 м +6.3 +1.1 69 +4 +4 тепло 1014.4 1004.1
С 3 50 км 9/9 1230 м +5.9 +2.1 77 +3 +3 тепло 1013.8 1003.4
С 3 50 км 9/9 1260 м +6.9 +2.3 72 +4 +5 по сезону 1013.1 1002.8
С 4 50 км 1/1 1260 м +7.3 +2.3 71 +4 +7 тепло 1012.5 1002.2
С 3 50 км 1/1 1350 м +7.8 +2.5 69 +6 +10 тепло 1012.1 1001.9
Ю 6 50 км ясно +7.7 +3.4 74 +4 +7 по сезону 1012.1 1001.8
Ю 5 45 км 9/9 1500 м +7.0 +3.8 80 +3 +3 тепло 1011.8 1001.5
ЮВ 5 45 км 10/10 1380 м +6.4 +4.0 85 +2 +2 тепло 1011.2 1000.9
ЮВ 4 40 км 9/9 1470 м +7.3 +3.7 78 +4 +5 по сезону 1010.4 1000.2
З 2 40 км 9/9 1500 м +6.7 +3.5 80 +5 +6 тепло 1009.6 999.3
СЗ 3 45 км 1/1 1500 м +8.9 +3.9 71 +7 +16 опасность
простуды
1008.3 998.1
СЗ 2 45 км 1/1 1500 м +9.2 +3.4 67 +8 +17 тепло 1007.4 997.3 +5.7 +10.0
З 2 45 км 6/6 1500 м +9.2 +3.5 67 +8 +12 тепло 1006.5 996.4
С 4 50 км 9/9 1500 м +10.3 +4.2 66 +8 +9 тепло 1005.7 995.6
ЮЗ 3 30 км в посл. час дождь 9/9 1500 м +6.3 +3.8 84 +3 +3 по сезону 1005.9 995.6 0.0
Ю 4 12 км слаб. ливневой дождь 10/10 1500 м +5.1 +4.8 98 +1 +1 по сезону 1005.3 995.1
ЮВ 4 14 км морось 10/10 1500 м +5.4 +5.1 98 +1 +1 тепло 1004.7 994.5 0.3
Ю 3 8000 м морось 9/9 1170 м +5.4 +5.2 99 +2 +2 по сезону 1004.1 993.9 0.9
Ю 7 5000 м слаб. ливневой дождь 10/10 60 м +4.8 +4.7 99 -1 -1 по сезону 1003.9 993.6 0.2
ЮВ 8 3100 м слаб. ливневой дождь 10/10 60 м +4.1 +4.1 100 -2 -2 тепло 1003.5 993.2
ЮВ 9 20 км слаб. ливневой дождь 10/10 60 м +4.5 +4.5 100 -2 -2 по сезону 1003.2 992.9 0.2
ЮВ 8 16 км морось 9/9 90 м +4.8 +4.6 99 -2 -2 по сезону 1003.0 992.8 0.8
ЮВ 7 16 км морось 9/9 60 м +4.9 +4.7 99 -1 -1 тепло 1002.7 992.5 0.6
ЮВ 10
{14}
6000 м слаб. ливневой дождь 10/10 90 м +5.0 +4.7 98 -2 -2 по сезону 1002.9 992.6 +4.0 +12.3 2 3.1
ЮВ 14-20
{20}
10 км слаб. морось 10/10 210 м +5.4 +4.3 93 -2 -2 по сезону 1002.2 992.0 0.9
ЮВ 14-20
{22}
15 км ливневой дождь 10/10 450 м +6.0 +3.9 86 -1 -1 тепло 1002.6 992.4
ЮВ 11
{23}
29 км слаб. ливневой дождь 10/10 450 м +5.5 +3.8 89 -1 -1 по сезону 1003.3 993.1 0.9
ЮВ 14 11 км слаб. ливневой дождь 9/9 750 м +5.8 +3.3 84 -1 -1 по сезону 1003.3 993.1
ЮВ 14 8000 м слаб. дождь 10/10 660 м +6.0 +3.3 83 -1 -1 тепло 1003.1 992.9 0.6
ЮВ 10-15
{23}
14 км слаб. дождь 10/10 660 м +6.0 +3.3 83 -0 -0 по сезону 1003.9 993.7 2
ЮВ 14 15 км слаб. дождь 10/10 660 м +6.1 +3.5 83 -1 -1 по сезону 1004.3 994.0 0.4
ЮВ 14-19
{20}
26 км слаб. морось 10/10 660 м +6.1 +3.6 84 -1 -1 тепло 1004.6 994.3
ЮВ 12
{20}
12 км слаб. ливневой дождь 10/10 150 м +4.7 +4.0 95 -3 -3 прохладно 1005.3 995.1 0.4
ЮВ 11 25 км 10/10 540 м +4.9 +4.2 95 -2 -2 по сезону 1005.6 995.3
ЮВ 12 50 км 9/9 450 м +6.0 +3.6 85 -1 -1 тепло 1005.5 995.3
ЮВ 12
{20}
50 км 9/9 660 м +5.8 +3.1 83 -1 -1 прохладно 1006.1 995.9 +4.7 +6.7 0.0
ЮВ 12 30 км 10/10 750 м +5.3 +3.7 89 -2 -2 по сезону 1006.8 996.5
ЮВ 13 26 км 10/10 540 м +4.9 +3.7 92 -2 -2 тепло 1007.2 996.9
ЮВ 12-17
{19}
16 км в посл. час дождь 10/10 90 м +4.3 +3.7 96 -3 -3 прохладно 1007.3 997.0 0.0
ЮВ 13 16 км 10/10 150 м +4.4 +3.6 95 -3 -3 по сезону 1007.6 997.2
ЮВ 13 11 км осадки 10/10 420 м +4.5 +3.6 94 -3 -3 тепло 1008.4 998.0
ЮВ 10
{20}
12 км слаб. ливневой дождь 10/10 270 м +4.3 +3.6 95 -3 -3 прохладно 1009.2 998.9 0.0
ЮВ 13 3800 м слаб. ливневой дождь 9/9 60 м +4.1 +3.9 99 -4 -4 по сезону 1009.0 998.6 0.4
ЮВ 12
{25}
4600 м слаб. дождь 10/10 210 м +4.3 +4.0 98 -3 -3 тепло 1009.8 999.5 0.6
ЮВ 14-19
{25}
8000 м слаб. ливневой дождь 9/9 420 м +5.1 +3.4 89 -2 -2 по сезону 1009.7 999.3 1
ЮВ 15 8000 м слаб. дождь 10/10 570 м +5.1 +3.2 88 -3 -3 по сезону 1009.8 999.4 0.6
ЮВ 12 14 км слаб. морось 10/10 480 м +5.2 +3.0 86 -2 -2 тепло 1010.7 1000.3 0.2
ЮВ 15
{25}
23 км в посл. час дождь 10/10 450 м +4.9 +2.8 86 -3 -3 по сезону 1010.7 1000.4 +4.1 +5.9 0.8 5.7
ЮВ 17 22 км 9/9 420 м +5.1 +2.8 85 -3 -3 по сезону 1010.6 1000.3
ЮВ 10 30 км 10/10 600 м +5.1 +2.6 84 -1 -1 тепло 1011.7 1001.4
ЮВ 12-17
{25}
50 км 9/9 720 м +6.0 +2.0 75 -0 -0 по сезону 1011.4 1001.1
ЮВ 12 11 км слаб. дождь 9/9 660 м +6.0 +3.0 81 -1 -1 тепло 1011.6 1001.3 0.2
ЮВ 10 10 км слаб. дождь 9/9 660 м +4.8 +3.5 91 -2 -2 тепло 1012.1 1001.8 0.8
ЮВ 9
{25}
9000 м слаб. дождь 9/9 570 м +6.1 +3.2 82 0 +1 по сезону 1012.1 1001.8 3
ЮВ 7 10 км слаб. дождь 9/9 660 м +5.9 +2.7 80 +1 +1 тепло 1011.9 1001.6 3
ЮВ 11-16
{16}
9000 м слаб. дождь 9/9 600 м +6.1 +3.2 82 -0 -0 тепло 1011.4 1001.1 2
ЮВ 10-16
{17}
10 км слаб. дождь 9/9 540 м +6.4 +3.8 83 +1 +1 по сезону 1011.3 1001.1 6
ЮВ 11
{14}
4700 м слаб. дождь 9/9 270 м +5.4 +4.3 93 -1 -1 по сезону 1011.6 1001.3 0.8
ЮВ 15 11 км слаб. дождь 9/9 420 м +5.6 +3.7 88 -2 -2 тепло 1010.9 1000.5 1
ЮВ 13
{20}
8000 м слаб. дождь 9/9 360 м +4.8 +3.7 93 -3 -3 прохладно 1011.2 1000.8 +4.8 +6.4 2
ЮВ 12 6000 м слаб. дождь 9/9 270 м +5.4 +4.6 95 -2 -2 по сезону 1010.7 1000.4 0.8
ЮВ 12 8000 м слаб. дождь 9/9 540 м +5.6 +4.1 90 -1 -1 тепло 1011.2 1000.9 0.9
ЮВ 10
{21}
13 км слаб. дождь 9/9 540 м +5.7 +3.6 86 -1 -1 по сезону 1011.5 1001.1 2
ЮВ 12 13 км слаб. дождь 9/9 1110 м +7.0 +3.4 78 +1 +1 тепло 1010.9 1000.7 1
ЮВ 8 50 км слаб. ливневой дождь 9/9 1110 м +8.2 +2.7 68 +4 +4 тепло 1011.2 1001.0 0.3
З 3
{21}
50 км 9/9 1200 м +5.3 +3.6 89 +2 +2 по сезону 1011.4 1001.1 1
З 4 50 км 9/0 +5.4 +3.4 87 +1 +1 тепло 1011.2 1000.9
СЗ 2 50 км ясно +6.2 +3.1 81 +4 +4 тепло 1010.6 1000.3
СВ 3 50 км ясно +6.4 +3.1 79 +3 +3 по сезону 1009.8 999.5
С 6 50 км ясно +6.9 +3.5 79 +2 +2 тепло 1009.1 998.8
С 7 50 км ясно +6.7 +3.5 80 +2 +2 тепло 1008.6 998.4
С 8 50 км ясно +7.0 +3.2 77 +2 +2 по сезону 1007.8 997.5 +4.7 +8.8 14.8
С 9 50 км 4/0 +8.4 +3.0 69 +4 +4 тепло 1006.6 996.5
СВ 10 50 км 1/0 +9.3 +2.5 62 +5 +5 тепло 1005.7 995.5
С 5 50 км 1/0 +7.6 +2.7 71 +4 +5 тепло 1005.7 995.5
С 5 50 км 1/0 +9.5 +2.3 61 +7 +9 тепло 1005.1 995.0
ЮЗ 1 50 км 1/0 +10.4 +2.5 58 +10 +17 тепло 1004.6 994.5
ЮВ 1 50 км 1/0 +11.0 +3.0 58 +11 +20 тепло 1004.4 994.4
ЮЗ 3 50 км ясно +9.0 +2.7 65 +7 +16 опасность
простуды
1004.1 994.0
Ю 3 50 км 6/6 1500 м +10.0 +3.0 62 +8 +12 тепло 1003.0 992.9
Ю 1
{8}
50 км 6/6 1500 м +9.7 +3.2 64 +10 +17 тепло 1002.2 992.1
С 3 50 км морось 9/9 930 м +9.0 +3.3 67 +7 +8 тепло 1001.5 991.4
С 5 40 км слаб. дождь 9/9 1230 м +9.1 +3.7 69 +6 +6 тепло 1000.9 990.8 0.8
С 6
{8}
22 км слаб. дождь 9/9 1020 м +8.3 +4.3 76 +4 +5 по сезону 999.9 989.8 +6.6 +11.5 2
СВ 9 12 км слаб. дождь 9/9 840 м +7.7 +4.9 82 +3 +3 тепло 998.3 988.2 4
С 6 7000 м дождь 9/9 750 м +7.2 +6.4 95 +3 +3 по сезону 998.4 988.3 11
Ю 5 8000 м слаб. дождь 9/9 120 м +7.4 +7.1 98 +3 +3 тепло 999.9 989.8 4
ЮВ 7 7000 м слаб. дождь 10/10 150 м +6.6 +6.1 97 +2 +2 тепло 998.9 988.7 6
ЮВ 5 9000 м морось 9/9 30 м +5.8 +5.7 99 +1 +1 по сезону 998.3 988.2 11
ЮВ 10 6000 м слаб. дождь 9/9 480 м +7.7 +6.7 93 +2 +2 тепло 998.5 988.4 2
ЮВ 10 4900 м слаб. дождь 9/9 150 м +6.7 +6.3 97 +1 +1 тепло 999.2 989.0 3
Местоположение метеостанции Nuuk (Гренландия): широта 64.17 долгота -51.75 высота над уровнем моря 84 м.
В архиве по умолчанию представлена погода в Nuuk за последнюю неделю. Архивные данные за месяц целиком и за предыдущие месяцы, начиная с января 2011 года, Вы можете получить, выбрав интересующий диапазон дат из раскрывающегося списка и нажав кнопку "Найти!".
*Определитесь, кто Вы:
Внимание! Время в таблицах - всемирное. Для получения местного времени необходимо прибавить поправку, которая равна -3 ч.
Смотрите также архив погоды в соседних городах и на ближайших метеорологических станциях:
Партнеры нашего сайта:      
Пояснения к столбцам:
  • Ветер - указаны скорость ветра в м/с - средняя за 10 мин, порывы в срок и между сроками (в фигурных скобках) и направление, откуда дует ветер: С - северный,
  • СВ - северо-восточный, В - восточный, ЮВ - юго-восточный, Ю - южный, ЮЗ - юго-западный, З - западный, СЗ - северо-западный.
  • Видимость - горизонтальная дальность видимости в метрах или километрах. При видимости от 1 до 10 км при отсутствии осадков обычно наблюдается дымка, при ухудшении видимости до 1 км и менее - туман. В сухую погоду видимость может ухудшаться дымом, пылью или мглою.
  • Явления - указаны атмосферные явления, наблюдавшиеся в срок или в последний час перед сроком; фигурными скобками обозначены явления, наблюдавшиеся между сроками (за 1-3 часа до срока); квадратными скобками обозначены град или гололедные отложения с указанием их диаметра в мм.
  • Облачность - указаны через наклонную черту общая и нижняя облачность в баллах и высота нижней границы облаков в метрах; квадратными скобками обозначены формы облаков: Ci - перистые, Cs - перисто-слоистые, Cc - перисто-кучевые, Ac - высококучевые, As - высокослоистые, Sc - слоисто-кучевые, Ns - слоисто-дождевые, Cu - кучевые, Cb - кучево-дождевые. Подробнее классификацию облаков см. в Атласе облаков (PDF).
  • T - Температура воздуха - температура, измеренная на высоте 2 м над землей.
  • Td - Температура точки росы - температура, при понижении до которой содержащийся в воздухе водяной пар достигнет насыщения.
  • f - Относительная влажность воздуха - влажноcть воздуха, измеренная на высоте 2 м над землей.
  • Te - Эффективная температура - температура, которую ощущает одетый по сезону человек в тени. Характеристика душности погоды. При расчете учитывается влияние влажности воздуха и скорости ветра на теплоощущения человека.
  • Tes - Эффективная температура на солнце - температура, которую ощущает человек, с поправкой на солнечный нагрев. Характеристика знойности погоды. Зависит от высоты солнца над горизонтом, облачности и скорости ветра. Ночью, в пасмурную погоду, а также при ветре 12 м/с и более поправка равна нулю.
  • P - Атмосферное давление - приведенное к уровню моря атмосферное давление.
  • Po - Атмосферное давление - измеренное на уровне метеостанции атмосферное давление.
  • Tmin - Минимальная температура - минимум температуры воздуха на высоте 2 м над землей.
  • Tmax - Максимальная температура - максимум температуры воздуха на высоте 2 м над землей.
  • R - Количество осадков - Количество выпавших осадков за период времени, мм. При наведении курсора мыши на число - период времени, за который выпало указанное количество осадков.
  • R24 - Количество осадков - Количество выпавших осадков за 24 часа, мм.
  • S - Снежный покров - Высота снежного покрова, см. При наведении курсора мыши на число - состояние снежного покрова и степень покрытия местности в баллах.